Regional Weather Roundup
Issued by NWS Goodland, KS

Home | Current Version | Previous Version | Text Only | Print | Product List | Glossary On
Versions: 1 2 3 4 5 6 7 8 9 10 11 12 13 14 15 16 17 18 19 20 21 22 23 24 25 26 27 28 29 30 31 32 33 34 35 36 37 38 39 40 41 42 43 44 45 46 47 48 49 50
323
ASUS43 KGLD 281008
RWRGLD

GOODLAND FORECAST AREA HOURLY WEATHER ROUNDUP
NATIONAL WEATHER SERVICE GOODLAND KS
400 AM MDT WED SEP 28 2016

...OFFICIAL OBSERVATIONS...

CITY           SKY/WX    TMP DP  RH WIND       PRES   REMARKS
GOODLAND KS    CLEAR     46  37  71 NW8       30.12R
HILL CITY KS   CLEAR     51  45  79 W6        30.06R
IMPERIAL NEB   CLEAR     49  38  65 NW5       30.13R
MCCOOK NEB     CLEAR     46  41  82 W6        30.08R
AKRON CO       CLOUDY    51  29  42 W9        30.20R
BURLINGTON CO  CLEAR     46  37  71 W9        30.15S
LIMON CO       CLOUDY    45  25  45 NW8       30.24R
$$

...UNOFFICIAL OBSERVATIONS...

CITY           SKY/WX    TMP DP  RH WIND       PRES   REMARKS
COLBY KS       CLEAR     55  41  58 N9        30.12R
LENORA KS        N/A     55  32  41 MISG        N/A
NORTON KS      CLEAR     54  39  58 NW10      30.05
SHARON SPRINGS   N/A     50  40  67 NW8         N/A
KIT CARSON CO    N/A     50  36  58 MISG        N/A
$$




USA.gov is the U.S. government's official web portal to all federal, state and local government web resources and services.